FOX-1A (AO-85)

Last updated on Wed Sep 17 2025 00:03:09 GMT+0000 (Coordinated Universal Time)

1 40967U 15058D 25259.57565916 .00005788 00000+0 52037-3 0 9999 2 40967 64.7764 47.9943 0146741 162.1395 198.4954 14.88688074 72809
UTC large
Height (km)
Speed (km/s)
/
Latitude / Longitude
Inclination (degrees)
Orbital Period (minutes)
Azimuth
Elevation
Range (km)
Doppler Factor

Next 0 passes for location: London (51.5072 / 0.1276)

Sorry there are no passes over London.